星链-36756(STARLINK-36756)

导读 | 豆包AI

STARLINK-36756是美国于2026年2月15日发射的星链卫星,归属于SpaceX公司的星链互联网星座项目。星链项目旨在通过近地轨道卫星群,为全球范围提供高速互联网接入服务,弥补地面网络覆盖盲区,此颗卫星将助力进一步完善星链星座的服务能力与覆盖范围。

基本信息
目录编号:
67817
目录名称:
STARLINK-36756
国际标识:
2026-032W
轨道中心:
EARTH
卫星名称:
星链-36756
卫星全名:
星链-36756(STARLINK-36756)
卫星状态:
在轨 (已飞行27 天)
发射日期:
2026-02-15 UTC
国别 :
美国 (US)
星等 :
--
轨道信息
数据来源 国际轨道数据
星历时间: 2026-03-14T08:59:28+0800
15小时前
查看轨道信息
半长轴: 6722.098km
偏心率: 0.0002148
轨道倾角: 97.284°
近地点辐角 87.252°
升交点赤经 259.820°
平近点角 272.899°
近地点: 342.517km
远地点: 345.405km
周期: 91.415分钟
每日圈数: 15.752358
详细信息
固有亮度:
5
最大亮度:
2.5
卫星平台:
Starlink V1.0
覆盖范围:
全球
运营商:
太空探索技术公司
运营商所在国:
美国
制造商(研发单位):
太空探索技术公司
制造商所在国:
美国
使用方式:
暂无
卫星简介
Starlink 计划是 SpaceX 推出的全球卫星互联网项目,通过发射低轨道卫星,为全球尤其是偏远地区提供高速、低延迟的互联网服务。自 2019 年起,Starlink 已部署数千颗卫星,旨在缩小全球数字鸿沟,推动互联网普及。该项目还为军事、航空等行业提供通信支持,带来广泛经济效益。
2D轨道图
3D轨道图
轨道高度分析图
轨道倾角分析图
轨道综合分析图
查看轨道综合分析图